INMARSAT 5-F1

Last updated on Tue Sep 22 2026 00:03:13 GMT+0000 (Coordinated Universal Time)

1 39476U 13073A 26264.17614288 .00000000 00000+0 00000+0 0 9998 2 39476 0.0250 152.1353 0000369 2.4139 331.5612 1.00269698 46546
UTC large
Height (km)
Speed (km/s)
/
Latitude / Longitude
Inclination (degrees)
Orbital Period (minutes)
Azimuth
Elevation
Range (km)
Doppler Factor

Next 0 passes for location: London (51.5072 / 0.1276)

No passes found over London.
INMARSAT 5-F1